GW3028 Weather Reports


time (UTC)temp
C
wind
direction
speed
KPH
gust
KPH
rain 1hr
cm
rain 24hr
cm
rain mn
cm
humidity
%
barometer
mb
20260506162728 15 5 0.0 1.6 0.00 0.46 0.46 87 1005.9
20260506162226 15 1 3.2 3.2 0.18 0.46 0.46 87 1005.9
20260506161724 15 291 4.8 4.8 0.30 0.46 0.46 87 1006.0
20260506161221 15 306 3.2 4.8 0.13 0.43 0.43 87 1006.1
20260506160718 15 356 3.2 3.2 0.18 0.41 0.41 87 1006.6
20260506160209 15 39 1.6 3.2 0.18 0.41 0.41 87 1006.2
20260506155707 15 111 3.2 4.8 0.13 0.38 0.38 87 1006.5
20260506155204 15 18 4.8 4.8 0.30 0.38 0.38 87 1006.5
20260506153311 15 296 3.2 3.2 0.00 0.30 0.30 87 1006.6
20260506152809 16 14 3.2 8.0 0.00 0.30 0.30 87 1006.6
20260506152306 16 53 1.6 1.6 0.13 0.30 0.30 86 1006.6
20260506151804 16 68 14.5 20.9 0.13 0.30 0.30 86 1006.5
20260506151301 16 339 17.7 27.4 0.18 0.28 0.28 86 1006.6
20260506150757 16 28 1.6 1.6 0.30 0.28 0.28 86 1006.4
20260506150303 16 38 0.0 0.0 0.13 0.25 0.25 87 1006.5
20260506145751 15 63 0.0 0.0 0.18 0.23 0.23 87 1006.6
20260506145248 15 303 3.2 3.2 0.18 0.23 0.23 87 1006.8
20260506144745 15 20 3.2 3.2 0.13 0.20 0.20 88 1007.0
20260506144242 15 65 0.0 0.0 0.13 0.20 0.20 88 1006.9
20260506143740 15 343 1.6 3.2 0.18 0.18 0.18 88 1007.2
20260506143237 16 50 0.0 0.0 0.18 0.18 0.18 88 1007.2
20260506142735 16 17 0.0 1.6 0.30 0.15 0.15 87 1007.1
20260506142233 16 58 0.0 0.0 0.30 0.15 0.15 87 1007.1
20260506141731 16 50 0.0 0.0 0.30 0.13 0.13 86 1007.4
20260506141229 16 50 0.0 0.0 0.13 0.10 0.10 86 1007.5
20260506140726 16 41 0.0 0.0 0.18 0.08 0.08 85 1007.3
20260506140223 16 89 0.0 0.0 0.18 0.08 0.08 85 1007.2
20260506135720 16 38 1.6 1.6 0.30 0.08 0.08 84 1007.3
20260506135216 16 34 0.0 1.6 0.30 0.05 0.05 83 1007.4
20260506134713 16 253 3.2 3.2 0.18 0.03 0.03 81 1007.5
20260506134209 16 40 0.0 1.6 0.00 0.00 0.00 80 1007.4
20260506133707 17 70 0.0 0.0 0.00 0.00 0.00 78 1007.4
20260506133203 17 346 4.8 4.8 0.00 0.00 0.00 77 1007.9
20260506132700 17 336 4.8 4.8 0.00 0.00 0.00 76 1007.7
20260506132157 17 39 3.2 3.2 0.00 0.00 0.00 76 1007.5
20260506131655 17 57 0.0 0.0 0.00 0.00 0.00 75 1007.3
20260506131151 17 288 4.8 4.8 0.00 0.00 0.00 76 1007.4
20260506130648 17 256 6.4 11.3 0.00 0.00 0.00 75 1007.1
20260506130145 17 14 3.2 3.2 0.00 0.00 0.00 75 1007.1
20260506125643 17 55 4.8 8.0 0.00 0.00 0.00 75 1006.9
20260506125141 17 321 6.4 8.0 0.00 0.00 0.00 74 1006.9
20260506124638 17 343 3.2 4.8 0.00 0.00 0.00 74 1006.8
20260506124136 17 308 9.7 12.9 0.00 0.00 0.00 74 1006.9
20260506123633 17 341 4.8 4.8 0.00 0.00 0.00 73 1006.8
20260506123132 17 299 1.6 3.2 0.00 0.00 0.00 74 1007.1
20260506122628 17 32 1.6 3.2 0.00 0.00 0.00 73 1006.8
20260506122126 17 340 4.8 4.8 0.00 0.00 0.00 73 1007.2
20260506121624 17 265 4.8 9.7 0.00 0.00 0.00 73 1007.3
20260506121120 17 328 8.0 9.7 0.00 0.00 0.00 72 1006.9
20260506120618 17 294 8.0 9.7 0.00 0.00 0.00 72 1007.2
20260506120115 17 61 1.6 3.2 0.00 0.00 0.00 71 1007.4
20260506115613 17 347 6.4 9.7 0.00 0.00 0.00 71 1007.3
20260506115111 17 315 9.7 14.5 0.00 0.00 0.00 71 1007.1
20260506114608 18 306 6.4 9.7 0.00 0.00 0.00 70 1007.3
20260506114106 18 358 11.3 12.9 0.00 0.00 0.00 70 1007.0
20260506113604 17 316 14.5 17.7 0.00 0.00 0.00 70 1007.0
20260506113101 18 322 4.8 4.8 0.00 0.00 0.00 70 1007.3
20260506112557 18 332 4.8 4.8 0.00 0.00 0.00 69 1007.1
20260506112055 18 302 11.3 14.5 0.00 0.00 0.00 69 1007.1
20260506111553 18 84 1.6 3.2 0.00 0.00 0.00 69 1007.1
20260506111050 18 5 3.2 4.8 0.00 0.00 0.00 69 1007.0
20260506110548 18 334 3.2 3.2 0.00 0.00 0.00 69 1006.5
20260506110045 18 3 8.0 9.7 0.00 0.00 0.00 68 1006.6
20260506105540 17 109 1.6 1.6 0.00 0.00 0.00 68 1006.4
20260506105038 17 337 8.0 9.7 0.00 0.00 0.00 68 1006.5
20260506104536 18 344 3.2 4.8 0.00 0.00 0.00 68 1006.8
20260506104034 17 62 0.0 0.0 0.00 0.00 0.00 68 1006.6
20260506103531 18 339 9.7 11.3 0.00 0.00 0.00 68 1006.5
20260506103027 17 357 8.0 11.3 0.00 0.00 0.00 67 1006.5
20260506102526 17 23 3.2 3.2 0.00 0.00 0.00 67 1006.5
20260506102023 17 317 4.8 4.8 0.00 0.00 0.00 67 1006.4
20260506101519 17 64 1.6 3.2 0.00 0.00 0.00 67 1006.5
20260506101016 17 345 3.2 4.8 0.00 0.00 0.00 66 1006.6
20260506100515 17 268 3.2 3.2 0.00 0.00 0.00 66 1006.6
20260506100013 17 327 8.0 9.7 0.00 0.00 0.00 66 1006.6
20260506095511 17 272 4.8 4.8 0.00 0.00 0.00 66 1006.6
20260506095007 17 343 8.0 11.3 0.00 0.00 0.00 66 1006.6
20260506094505 17 12 0.0 1.6 0.00 0.00 0.00 66 1006.5
20260506094003 17 357 4.8 4.8 0.00 0.00 0.00 67 1006.5
20260506093501 17 296 4.8 4.8 0.00 0.00 0.00 67 1006.6
20260506092958 17 310 6.4 9.7 0.00 0.00 0.00 66 1006.6
20260506092455 17 48 0.0 0.0 0.00 0.00 0.00 69 1006.5
20260506091952 17 260 0.0 1.6 0.00 0.00 0.00 67 1006.5
20260506091450 17 223 3.2 4.8 0.00 0.00 0.00 65 1006.4
20260506090947 17 312 1.6 3.2 0.00 0.00 0.00 66 1007.0
20260506090445 17 321 4.8 8.0 0.00 0.00 0.00 65 1006.9
20260506085941 17 338 3.2 4.8 0.00 0.00 0.00 64 1006.6
20260506085438 17 171 1.6 3.2 0.00 0.00 0.00 65 1006.9
20260506084934 17 203 1.6 1.6 0.00 0.00 0.00 64 1006.9
20260506084431 17 83 0.0 0.0 0.00 0.00 0.00 66 1006.8
20260506083927 17 237 0.0 0.0 0.00 0.00 0.00 65 1006.6
20260506083425 17 313 1.6 3.2 0.00 0.00 0.00 65 1006.8
20260506082922 17 301 3.2 4.8 0.00 0.00 0.00 65 1006.8
20260506082419 17 49 0.0 0.0 0.00 0.00 0.00 62 1006.8
20260506081914 17 51 0.0 0.0 0.00 0.00 0.00 67 1006.8
20260506081414 17 82 0.0 0.0 0.00 0.00 0.00 66 1007.1
20260506080910 17 335 1.6 1.6 0.00 0.00 0.00 64 1007.1
20260506080407 17 36 0.0 1.6 0.00 0.00 0.00 65 1007.1
20260506073351 18 43 0.0 1.6 0.00 0.00 0.00 59 1007.1
20260506072847 18 78 0.0 0.0 0.00 0.00 0.00 61 1007.3
20260506072345 18 71 3.2 4.8 0.00 0.00 0.00 58 1007.1
20260506071843 18 260 6.4 8.0 0.00 0.00 0.00 58 1007.0
20260506071341 18 331 3.2 8.0 0.00 0.00 0.00 57 1007.0
20260506070837 18 20 3.2 3.2 0.00 0.00 0.00 57 1007.1
20260506070334 18 41 0.0 0.0 0.00 0.00 0.00 57 1006.9
20260506062312 18 248 4.8 4.8 0.00 0.00 0.00 58 1007.5
20260506061808 19 338 1.6 3.2 0.00 0.00 0.00 57 1007.4
20260506061304 19 6 0.0 0.0 0.00 0.00 0.00 56 1007.8
20260506060803 19 346 6.4 8.0 0.00 0.00 0.00 55 1007.8
20260506060301 19 302 3.2 9.7 0.00 0.00 0.00 57 1007.9
20260506051232 18 268 1.6 3.2 0.00 0.00 0.00 57 1007.7
20260506050730 18 322 4.8 4.8 0.00 0.00 0.00 54 1007.9
20260506050227 18 23 0.0 1.6 0.00 0.00 0.00 56 1008.1
20260506044718 19 274 1.6 3.2 0.00 0.00 0.00 59 1007.8
20260506044215 18 321 1.6 1.6 0.00 0.00 0.00 59 1007.8
20260506043712 18 36 0.0 0.0 0.00 0.00 0.00 56 1007.8
20260506043210 18 46 0.0 0.0 0.00 0.00 0.00 58 1007.9
20260506042709 17 25 1.6 3.2 0.00 0.00 0.00 58 1007.9
20260506042207 18 40 0.0 0.0 0.00 0.00 0.00 58 1007.9
20260506041705 17 11 0.0 0.0 0.00 0.00 0.00 59 1007.8
20260506041201 17 206 1.6 1.6 0.00 0.00 0.00 62 1007.8
20260506040659 17 194 0.0 0.0 0.00 0.00 0.00 59 1007.7
20260506040155 17 42 0.0 0.0 0.00 0.00 0.00 57 1007.7
20260506035652 18 42 0.0 0.0 0.00 0.00 0.00 56 1007.7
20260506035149 18 328 0.0 1.6 0.00 0.00 0.00 56 1008.0
20260506034646 18 117 0.0 0.0 0.00 0.00 0.00 57 1007.9
20260506034143 18 53 0.0 0.0 0.00 0.00 0.00 57 1008.0
20260506033640 19 62 0.0 0.0 0.00 0.00 0.00 53 1008.0
20260506033137 18 9 3.2 4.8 0.00 0.00 0.00 55 1007.7
20260506032634 19 282 1.6 1.6 0.00 0.00 0.00 54 1007.6
20260506032131 18 306 4.8 4.8 0.00 0.00 0.00 53 1007.9
20260506031628 18 279 1.6 1.6 0.00 0.00 0.00 52 1007.6
20260506031125 18 262 1.6 1.6 0.00 0.00 0.00 55 1007.8
20260506030624 19 40 0.0 1.6 0.00 0.00 0.00 52 1007.6
20260506030121 19 44 0.0 0.0 0.00 0.00 0.00 52 1007.8
20260506025617 19 84 0.0 0.0 0.00 0.00 0.00 50 1007.7
20260506025113 20 62 0.0 0.0 0.00 0.00 0.00 51 1007.8
20260506024611 20 40 0.0 0.0 0.00 0.00 0.00 49 1007.7
20260506024107 20 281 9.7 12.9 0.00 0.00 0.00 49 1007.8
20260506023603 21 320 1.6 3.2 0.00 0.00 0.00 48 1007.8
20260506023101 21 202 3.2 3.2 0.00 0.00 0.00 48 1007.9
20260506022558 21 55 1.6 1.6 0.00 0.00 0.00 44 1007.8
20260506022055 21 357 0.0 1.6 0.00 0.00 0.00 45 1007.9
20260506021553 21 50 0.0 0.0 0.00 0.00 0.00 47 1007.9
20260506021050 21 322 4.8 4.8 0.00 0.00 0.00 45 1007.7
20260506020547 21 25 1.6 4.8 0.00 0.00 0.00 43 1007.7
20260506020045 21 53 0.0 0.0 0.00 0.00 0.00 47 1007.9
20260506015542 21 91 1.6 3.2 0.00 0.00 0.00 46 1007.7
20260506015039 21 12 4.8 4.8 0.00 0.00 0.00 44 1007.7
20260506014536 22 316 1.6 1.6 0.00 0.00 0.00 43 1007.4
20260506014032 22 134 1.6 1.6 0.00 0.00 0.00 44 1007.5
20260506013531 22 309 1.6 1.6 0.00 0.00 0.00 45 1007.5
20260506013027 22 306 4.8 4.8 0.00 0.00 0.00 43 1007.3
20260506012523 22 303 3.2 3.2 0.00 0.00 0.00 44 1007.3
20260506012020 22 200 8.0 11.3 0.00 0.00 0.00 41 1007.4
20260506011517 23 323 4.8 4.8 0.00 0.00 0.00 42 1007.1
20260506011013 22 15 3.2 4.8 0.00 0.00 0.00 43 1007.1
20260506010508 22 305 9.7 11.3 0.00 0.00 0.00 42 1006.9
20260506010004 22 16 1.6 1.6 0.00 0.00 0.00 44 1006.9
20260506005501 22 2 3.2 3.2 0.00 0.00 0.00 44 1007.0
20260506004956 22 53 1.6 3.2 0.00 0.00 0.00 43 1007.0
20260506004454 22 250 6.4 8.0 0.00 0.00 0.00 46 1006.8
20260506003950 22 83 0.0 0.0 0.00 0.00 0.00 45 1006.9
20260506003447 22 352 3.2 3.2 0.00 0.00 0.00 44 1006.9
20260506002943 22 20 1.6 3.2 0.00 0.00 0.00 43 1006.6
20260506002439 22 304 1.6 1.6 0.00 0.00 0.00 47 1006.9
20260506001934 22 330 6.4 8.0 0.00 0.00 0.00 44 1006.4
20260506001432 22 306 3.2 4.8 0.00 0.00 0.00 43 1006.4
20260506000929 22 306 3.2 4.8 0.00 0.00 0.00 43 1006.5
20260506000427 22 310 3.2 3.2 0.00 0.00 0.00 45 1006.3
20260505235923 23 46 0.0 1.6 0.00 0.00 0.00 40 1006.6
20260505235422 23 47 4.8 4.8 0.00 0.00 0.00 42 1006.3
20260505234918 23 41 0.0 1.6 0.00 0.00 0.00 42 1006.4
20260505234416 23 30 1.6 3.2 0.00 0.00 0.00 41 1006.4
20260505233912 23 247 8.0 9.7 0.00 0.00 0.00 43 1006.3
20260505233410 23 109 1.6 3.2 0.00 0.00 0.00 41 1006.3
20260505232907 23 55 1.6 1.6 0.00 0.00 0.00 39 1006.3
20260505232405 23 351 4.8 8.0 0.00 0.00 0.00 38 1006.4
20260505231901 24 58 4.8 4.8 0.00 0.00 0.00 37 1006.1
20260505231359 25 258 3.2 4.8 0.00 0.00 0.00 41 1006.3
20260505230857 24 297 14.5 24.1 0.00 0.00 0.00 37 1006.0
20260505230354 24 117 0.0 1.6 0.00 0.00 0.00 38 1006.1
20260505225851 24 347 4.8 4.8 0.00 0.00 0.00 38 1006.0
20260505225348 25 5 1.6 3.2 0.00 0.00 0.00 38 1006.1
20260505224843 25 315 9.7 14.5 0.00 0.00 0.00 37 1006.0
20260505224341 25 355 6.4 9.7 0.00 0.00 0.00 37 1006.0
20260505223838 25 291 6.4 8.0 0.00 0.00 0.00 38 1005.9
20260505223335 25 349 3.2 4.8 0.00 0.00 0.00 37 1005.9
20260505222830 25 324 6.4 8.0 0.00 0.00 0.00 36 1005.9
20260505222327 25 314 4.8 8.0 0.00 0.00 0.00 37 1005.5
20260505221824 25 354 6.4 11.3 0.00 0.00 0.00 36 1005.8
20260505221321 25 352 11.3 16.1 0.00 0.00 0.00 36 1005.7
20260505220818 25 58 4.8 4.8 0.00 0.00 0.00 37 1005.4
20260505220315 25 299 16.1 20.9 0.00 0.00 0.00 36 1005.5
20260505215813 25 287 11.3 14.5 0.00 0.00 0.00 35 1005.5
20260505215310 25 288 6.4 14.5 0.00 0.00 0.00 36 1005.6
20260505214808 25 289 4.8 8.0 0.00 0.00 0.00 35 1005.6
20260505214306 25 74 0.0 0.0 0.00 0.00 0.00 33 1005.7
20260505213802 25 351 1.6 1.6 0.00 0.00 0.00 32 1005.7
20260505213300 25 330 20.9 27.4 0.00 0.00 0.00 31 1005.5
20260505212755 25 307 6.4 8.0 0.00 0.00 0.00 31 1005.5
20260505212253 25 344 8.0 12.9 0.00 0.00 0.00 31 1005.3
20260505211749 25 328 11.3 14.5 0.00 0.00 0.00 31 1005.1
20260505211247 25 241 12.9 16.1 0.00 0.00 0.00 31 1005.2
20260505210743 25 34 6.4 9.7 0.00 0.00 0.00 31 1005.0
20260505210240 25 193 3.2 4.8 0.00 0.00 0.00 32 1005.4
20260505205738 25 337 9.7 12.9 0.00 0.00 0.00 32 1005.2
20260505205236 26 343 4.8 8.0 0.00 0.00 0.00 31 1005.0
20260505204732 26 296 12.9 20.9 0.00 0.00 0.00 30 1004.9
20260505204230 26 284 24.1 32.2 0.00 0.00 0.00 30 1005.1
20260505203727 27 343 6.4 9.7 0.00 0.00 0.00 29 1005.1
20260505203224 27 326 9.7 14.5 0.00 0.00 0.00 28 1005.3
20260505202719 27 298 14.5 16.1 0.00 0.00 0.00 28 1004.8
20260505202216 27 20 9.7 12.9 0.00 0.00 0.00 30 1004.8
20260505201712 27 317 17.7 24.1 0.00 0.00 0.00 29 1004.9
20260505201210 27 30 8.0 12.9 0.00 0.00 0.00 28 1005.3
20260505200708 27 233 6.4 16.1 0.00 0.00 0.00 29 1004.9
20260505200205 27 352 8.0 11.3 0.00 0.00 0.00 29 1005.0
20260505195701 27 339 12.9 16.1 0.00 0.00 0.00 29 1005.1
20260505195158 27 303 11.3 12.9 0.00 0.00 0.00 30 1005.0
20260505194655 27 296 16.1 24.1 0.00 0.00 0.00 31 1005.1
20260505194151 27 25 8.0 14.5 0.00 0.00 0.00 29 1005.2
20260505193648 27 293 11.3 14.5 0.00 0.00 0.00 31 1005.3
20260505193145 26 304 19.3 22.5 0.00 0.00 0.00 31 1005.5
20260505192644 26 285 8.0 11.3 0.00 0.00 0.00 30 1005.5
20260505192141 26 306 14.5 16.1 0.00 0.00 0.00 31 1006.0
20260505191639 26 297 17.7 25.7 0.00 0.00 0.00 31 1006.0
20260505191137 26 67 14.5 22.5 0.00 0.00 0.00 31 1005.8
20260505190632 26 332 11.3 16.1 0.00 0.00 0.00 32 1005.8
20260505190127 26 295 25.7 37.0 0.00 0.00 0.00 31 1005.6
20260505185624 26 177 11.3 16.1 0.00 0.00 0.00 33 1005.9
20260505185121 26 39 4.8 11.3 0.00 0.00 0.00 33 1005.8
20260505184617 26 88 4.8 9.7 0.00 0.00 0.00 34 1006.4
20260505184114 26 296 19.3 25.7 0.00 0.00 0.00 34 1006.4
20260505183611 26 281 11.3 27.4 0.00 0.00 0.00 33 1006.3
20260505183109 27 274 14.5 17.7 0.00 0.00 0.00 33 1006.1
20260505182605 27 308 6.4 11.3 0.00 0.00 0.00 33 1006.2
20260505182102 26 268 22.5 29.0 0.00 0.00 0.00 32 1006.5
20260505181558 26 299 14.5 17.7 0.00 0.00 0.00 32 1006.5
20260505181056 26 309 11.3 16.1 0.00 0.00 0.00 33 1006.5
20260505180551 26 344 14.5 24.1 0.00 0.00 0.00 31 1006.3
20260505180049 26 103 4.8 9.7 0.00 0.00 0.00 35 1006.4
20260505175549 26 267 9.7 12.9 0.00 0.00 0.00 35 1006.3
20260505175046 27 132 6.4 12.9 0.00 0.00 0.00 35 1006.5
20260505174543 27 349 3.2 4.8 0.00 0.00 0.00 35 1006.5
20260505174039 26 1 11.3 12.9 0.00 0.00 0.00 35 1006.6
20260505173536 26 279 17.7 24.1 0.00 0.00 0.00 36 1006.6
20260505173033 26 330 17.7 25.7 0.00 0.00 0.00 35 1006.3
20260505172531 26 322 3.2 4.8 0.00 0.00 0.00 35 1006.5
20260505172027 26 212 4.8 8.0 0.00 0.00 0.00 36 1006.5
20260505171522 26 7 3.2 3.2 0.00 0.00 0.00 38 1006.8
20260505171020 26 224 11.3 14.5 0.00 0.00 0.00 35 1006.6
20260505170516 26 285 11.3 17.7 0.00 0.00 0.00 37 1006.6
20260505170012 26 298 6.4 12.9 0.00 0.00 0.00 37 1006.8
20260505165502 26 276 17.7 20.9 0.00 0.00 0.00 38 1006.8
20260505164958 26 8 11.3 12.9 0.00 0.00 0.00 36 1007.1
20260505164454 26 36 9.7 17.7 0.00 0.00 0.00 38 1007.0
20260505163952 26 346 11.3 12.9 0.00 0.00 0.00 39 1006.9
20260505163451 26 46 11.3 24.1 0.00 0.00 0.00 37 1006.8
20260505162950 25 284 9.7 12.9 0.00 0.00 0.00 40 1007.1